Regional Weather Roundup
Issued by NWS Northern Indiana

Home | Current Version | Previous Version | Graphics & Text | Print | Product List | Glossary On
Versions: 1 2 3 4 5 6 7 8 9 10 11 12 13 14 15 16 17 18 19 20 21 22 23 24 25 26 27 28 29 30 31 32 33 34 35 36 37 38 39 40 41 42 43 44 45 46 47 48 49 50
000
ASUS43 KIWX 300800
RWRIWX

KIWX WEATHER ROUNDUP
NATIONAL WEATHER SERVICE NORTHERN INDIANA
400 AM EDT MON MAR 30 2015

NOTE: "FAIR" INDICATES FEW OR NO CLOUDS BELOW 12,000 FEET WITH NO
SIGNIFICANT WEATHER AND/OR OBSTRUCTIONS TO VISIBILITY.

* THESE STATIONS ARE NOT UNDER NWS QUALITY CONTROL. THEY ALSO MAY NOT
  REPORT WEATHER SUCH AS PRECIPITATION OR FOG.

INZ001>027-300900-
NORTHERN INDIANA

CITY           SKY/WX    TMP DP  RH WIND       PRES   REMARKS
SOUTH BEND     PTCLDY    37  29  72 W10       29.94S
GOSHEN         MOCLDY    38  30  73 W10       29.92R
ANGOLA*        PTCLDY    39  30  70 VRB7      29.88S
FORT WAYNE     PTCLDY    40  30  67 W13       29.94R

$$
INZ028>050-300900-
CENTRAL INDIANA

CITY           SKY/WX    TMP DP  RH WIND       PRES   REMARKS
LAFAYETTE      CLEAR     36  32  85 W7        30.00R
KOKOMO*          N/A     39  34  81 W8        29.98R
MUNCIE*        PTCLDY    39  33  79 W8        29.96F
INDIANAPOLIS   CLEAR     38  32  79 W8        29.98F

$$
MIZ043>046-050>051-056>058-064>065-071>073-077>080-300900-
SOUTHWEST LOWER MICHIGAN

CITY           SKY/WX    TMP DP  RH WIND       PRES   REMARKS
BATTLE CREEK   PTCLDY    38  29  70 W13       29.86R
BENTON HARBOR  CLEAR     38  32  79 W15       29.93R
COLDWATER*     MOCLDY    37  30  75 W8        29.88R
HILLSDALE*     CLOUDY    40  32  75 W13G18    29.84R
HOLLAND        CLEAR     39  31  72 W16G25    29.88R
GRAND RAPIDS   CLEAR     38  29  70 W16       29.85R
KALAMAZOO      CLEAR     40  28  62 W10G21    29.88R
STURGIS*       CLEAR     37  28  70 W9        29.89R
THREE RIVERS*  FAIR      37  28  70 W10G16    29.90R

$$
OHZ001>008-015>018-024>025-300900-
NORTHWEST OHIO

CITY           SKY/WX    TMP DP  RH WIND       PRES   REMARKS
DEFIANCE       CLOUDY    43  32  65 W8G17     29.89R
FINDLAY        CLOUDY    42  32  67 W13       29.87R
TOLEDO EXPRESS CLOUDY    42  31  64 W14       29.85R
TOLEDO METCALF CLOUDY    43  31  62 W16       29.85R
LIMA           MOCLDY    43  33  68 W15       29.90R

$$
AND FOR LAKE MICHIGAN COASTAL AND OPEN LAKE BUOY OBSERVATIONS

STATION/POSITION TEMP    WIND        PRES    VSBY  WAVE
                 AIR SEA DIR/SP/G                  HT/PER
                 (F)     (DEG/KT/KT) (MB)    (MI)  (FT/S)
CALUMET HARBOR    41     240/  5/  7 1013.5R
MICHIGAN CITY     39     230/ 13/ 14   N/A
BURNS HARBOR      40     250/  9/ 11 1015.2S
SAINT JOSEPH      36     230/  7/ 11 1014.6R

$$
&&


USA.gov is the U.S. government's official web portal to all federal, state and local government web resources and services.